Flag for Switzerland Weather past 2 weeks in Köniz, Bern, Switzerland

Now
57 °F

Broken clouds.


Feels Like: 57 °F
Forecast: 42 / 61 °F
Wind: 3 mph from South

Location: Bern / Belp

Current Time: May 26, 2015 at 2:22:57 PM

Latest Report: May 26, 2015 at 1:50 PM


Visibility: N/A

Pressure: 30.07 "Hg

Humidity: 82%

Dew point: 52 °F

Location of KönizLocation

Historic Weather in Köniz — Graph

°F

Köniz temperature yesterday

Maximum temperature yesterday: 66 °F (at 11:50 AM)
Minimum temperature yesterday: 52 °F (at 4:20 AM)
Average temperature yesterday: 57 °F

Past Weeks' High & Low Weather Summary

 TemperatureHumidityPressure
High84 °F (May 13, 3:20 PM)100% (May 15, 8:50 PM)30.30 "Hg (May 15, 8:50 PM)
Low39 °F (May 15, 1:20 PM)25% (May 12, 5:20 PM)29.77 "Hg (May 18, 5:50 PM)
Average56 °F73%30.06 "Hg
* Reported May 11 1:20 PM — May 26 1:20 PM, Köniz, Weather by CustomWeather, © 2015

Note: Actual official high and low records may vary slightly from our data, if they occured in-between our weather recording intervals... More about our weather records

Advertising

Köniz weather history for previous 24 hours

 ConditionsComfort  
Time TempWeatherWind HumidityBarometerVisibility
1:20 PM
Tue, May 26
57 °FBroken clouds.6 mph72%30.04 "HgN/A
12:50 PM54 °FLight rain. Partly sunny.8 mph94%30.04 "HgN/A
12:20 PM52 °FLight rain. Broken clouds.6 mph88%30.07 "HgN/A
11:50 AM52 °FRain. More clouds than sun.5 mph94%30.07 "Hg4 mi
11:20 AM52 °FRain. Fog.9 mph94%30.04 "Hg5 mi
10:50 AM54 °FBroken clouds.9 mph88%30.04 "HgN/A
10:20 AM54 °FBroken clouds.5 mph88%30.04 "HgN/A
9:50 AM54 °FBroken clouds.3 mph88%30.04 "HgN/A
9:20 AM54 °FBroken clouds.2 mph88%30.04 "HgN/A
8:50 AM52 °FBroken clouds.3 mph94%30.01 "HgN/A
8:20 AM52 °FBroken clouds.3 mph94%30.01 "HgN/A
7:50 AM52 °FBroken clouds.3 mph94%30.01 "HgN/A
7:20 AM50 °FPartly sunny.5 mph100%29.98 "HgN/A
6:50 AM50 °FBroken clouds.5 mph100%29.98 "HgN/A
6:20 AM50 °FPartly cloudy.7 mph94%29.98 "HgN/A
5:50 AM50 °FPartly cloudy.3 mph94%29.98 "HgN/A
5:20 AM50 °FSprinkles. Low clouds.1 mph94%29.98 "HgN/A
4:50 AM50 °FOvercast.2 mph94%29.98 "HgN/A
4:20 AM50 °FLight rain. Passing clouds.5 mph94%29.98 "HgN/A
3:50 AM50 °FOvercast.6 mph94%29.98 "HgN/A
3:20 AM50 °FOvercast.5 mph94%29.98 "HgN/A
2:50 AM50 °FPassing clouds.6 mph94%29.98 "HgN/A
2:20 AM50 °FOvercast.5 mph100%29.98 "HgN/A
1:50 AM50 °FOvercast.7 mph94%29.98 "HgN/A
1:20 AM50 °FCool.7 mph100%29.98 "HgN/A
12:50 AM52 °FLight rain. Passing clouds.7 mph94%30.01 "HgN/A
12:20 AM52 °FOvercast.5 mph94%30.01 "HgN/A
11:50 PM
Mon, May 25
52 °FPartly cloudy.8 mph94%30.01 "HgN/A
11:20 PM54 °FPartly cloudy.8 mph88%30.01 "HgN/A
10:20 PM54 °FPartly cloudy.10 mph94%30.01 "HgN/A
9:50 PM54 °FSprinkles. Broken clouds.7 mph94%29.98 "HgN/A
9:20 PM54 °FBroken clouds.3 mph94%29.98 "HgN/A
8:50 PM54 °FDrizzle. Broken clouds.6 mph94%29.98 "HgN/A
8:20 PM54 °FDrizzle. Broken clouds.6 mph94%29.98 "HgN/A
7:50 PM55 °FDrizzle. Broken clouds.7 mph94%29.98 "HgN/A
7:20 PM55 °FLight rain. Broken clouds.10 mph94%29.95 "HgN/A
6:50 PM54 °FSprinkles. Broken clouds.10 mph94%29.95 "HgN/A
6:20 PM55 °FRain showers. Broken clouds.12 mph88%29.95 "HgN/A
5:50 PM59 °FBroken clouds.12 mph77%29.95 "HgN/A
5:20 PM59 °FDrizzle. Broken clouds.13 mph77%29.95 "HgN/A
4:50 PM61 °FLight rain. Broken clouds.3 mph68%29.95 "HgN/A
4:20 PM64 °FBroken clouds.5 mph60%29.95 "HgN/A
3:50 PM66 °FBroken clouds.5 mph60%29.95 "HgN/A
3:20 PM64 °FBroken clouds.6 mph64%29.95 "HgN/A
2:50 PM63 °FBroken clouds.7 mph68%29.95 "HgN/A
2:20 PM64 °FBroken clouds.7 mph64%29.98 "HgN/A
Weather by CustomWeather, © 2015

See weather overviewHow to use our weather pages